Tracking 29892 objects as of 21-Nov-2024
HD Live streaming from Space Station
objects crossing your sky now

SL-6 R/B(2)

Track SL-6 R/B(2) now!


NORAD ID: 10155
Int'l Code: 1977-054D
Perigee: 992.5 km
Apogee: 32,257.6 km
Inclination: 64.1 °
Period: 578.4 minutes
Semi major axis: 22996 km
RCS: 7.637 m2 (large)
Launch date: June 24, 1977
Source: Commonwealth of Independent States (former USSR) (CIS)
Launch site: TYURATAM MISSILE AND SPACE COMPLEX (TTMTR)

Note: This is a ROCKET BODY
Your satellite tracking list
Your tracking list is empty




NASA's NSSDC Master Catalog

Two Line Element Set (TLE):
1 10155U 77054D   24320.99633523 -.00000042  00000-0  59559-2 0  9998
2 10155  64.1309 298.8041 6797923 283.3250  13.9766  2.48956335104366
Source of the keplerian elements: AFSPC